Tabellarische Ansicht des 8.9.2011


Die einzelnen Werte des Tages

Uhrzeit Temperatur Luftdruck Luftfeuchte Wind Hi-Wind Taupunkt THW Index Wind Chill Heat Index Solar- strahlung Regen

00:00

14.1 C

1006.0 hpa

80 %

17.7 km/h aus 112

27.4 km/h aus SSW

10.7 C

11.6 C

11.8 C

13.9 C

0 W/m

0.00 mm

00:05

14.1 C

1006.0 hpa

80 %

14.5 km/h aus 109

24.1 km/h aus SSW

10.7 C

12.3 C

12.5 C

13.9 C

0 W/m

0.00 mm

00:10

14.0 C

1006.0 hpa

80 %

12.9 km/h aus 111

24.1 km/h aus SW

10.6 C

12.7 C

12.8 C

13.8 C

0 W/m

0.00 mm

00:15

14.0 C

1006.0 hpa

80 %

14.5 km/h aus 103

25.7 km/h aus SW

10.6 C

12.2 C

12.4 C

13.8 C

0 W/m

0.00 mm

00:20

14.0 C

1006.0 hpa

80 %

12.9 km/h aus 112

19.3 km/h aus SSW

10.6 C

12.7 C

12.8 C

13.8 C

0 W/m

0.00 mm

00:25

14.0 C

1006.0 hpa

81 %

17.7 km/h aus 104

27.4 km/h aus SSW

10.8 C

11.6 C

11.7 C

13.9 C

0 W/m

0.00 mm

00:30

14.0 C

1005.6 hpa

81 %

16.1 km/h aus 109

27.4 km/h aus SW

10.8 C

11.9 C

12.1 C

13.9 C

0 W/m

0.00 mm

00:35

14.0 C

1005.6 hpa

81 %

16.1 km/h aus 99

30.6 km/h aus S

10.8 C

11.9 C

12.1 C

13.9 C

0 W/m

0.00 mm

00:40

14.1 C

1005.6 hpa

81 %

16.1 km/h aus 112

25.7 km/h aus SSW

10.8 C

12.0 C

12.1 C

13.9 C

0 W/m

0.00 mm

00:45

14.1 C

1005.5 hpa

81 %

14.5 km/h aus 108

25.7 km/h aus SW

10.8 C

12.4 C

12.5 C

13.9 C

0 W/m

0.00 mm

00:50

14.1 C

1005.5 hpa

81 %

16.1 km/h aus 109

27.4 km/h aus SW

10.8 C

12.0 C

12.1 C

13.9 C

0 W/m

0.00 mm

00:55

14.1 C

1005.5 hpa

81 %

16.1 km/h aus 110

24.1 km/h aus S

10.8 C

12.0 C

12.1 C

13.9 C

0 W/m

0.00 mm

01:00

14.1 C

1005.3 hpa

81 %

14.5 km/h aus 106

22.5 km/h aus S

10.8 C

12.4 C

12.5 C

13.9 C

0 W/m

0.00 mm

01:05

14.1 C

1005.3 hpa

80 %

17.7 km/h aus 111

29.0 km/h aus SSW

10.7 C

11.7 C

11.8 C

13.9 C

0 W/m

0.00 mm

01:10

14.1 C

1005.3 hpa

81 %

14.5 km/h aus 109

27.4 km/h aus S

10.9 C

12.4 C

12.6 C

14.0 C

0 W/m

0.00 mm

01:15

14.1 C

1004.9 hpa

80 %

17.7 km/h aus 105

27.4 km/h aus SSW

10.7 C

11.7 C

11.8 C

13.9 C

0 W/m

0.00 mm

01:20

14.1 C

1004.9 hpa

80 %

14.5 km/h aus 103

22.5 km/h aus SSW

10.7 C

12.4 C

12.6 C

13.9 C

0 W/m

0.00 mm

01:25

14.1 C

1004.9 hpa

80 %

17.7 km/h aus 106

32.2 km/h aus SSW

10.7 C

11.7 C

11.8 C

13.9 C

0 W/m

0.00 mm

01:30

14.1 C

1004.9 hpa

80 %

16.1 km/h aus 113

32.2 km/h aus SSW

10.7 C

12.0 C

12.2 C

13.9 C

0 W/m

0.00 mm

01:35

14.1 C

1004.9 hpa

80 %

16.1 km/h aus 110

32.2 km/h aus SSW

10.7 C

12.0 C

12.2 C

13.9 C

0 W/m

0.00 mm

01:40

14.1 C

1004.9 hpa

80 %

14.5 km/h aus 112

24.1 km/h aus SSW

10.7 C

12.3 C

12.5 C

13.9 C

0 W/m

0.00 mm

01:45

14.1 C

1004.9 hpa

81 %

16.1 km/h aus 108

24.1 km/h aus SSW

10.8 C

12.0 C

12.1 C

13.9 C

0 W/m

0.00 mm

01:50

14.1 C

1004.9 hpa

81 %

12.9 km/h aus 112

25.7 km/h aus SW

10.8 C

12.8 C

12.9 C

13.9 C

0 W/m

0.00 mm

01:55

14.0 C

1004.9 hpa

81 %

11.3 km/h aus 111

29.0 km/h aus SW

10.8 C

13.1 C

13.2 C

13.9 C

0 W/m

0.00 mm

02:00

14.0 C

1004.5 hpa

81 %

14.5 km/h aus 106

27.4 km/h aus S

10.8 C

12.3 C

12.4 C

13.9 C

0 W/m

0.00 mm

02:05

14.0 C

1004.5 hpa

81 %

17.7 km/h aus 110

30.6 km/h aus SSW

10.8 C

11.6 C

11.7 C

13.9 C

0 W/m

0.00 mm

02:10

14.0 C

1004.5 hpa

81 %

14.5 km/h aus 101

24.1 km/h aus SSW

10.8 C

12.3 C

12.4 C

13.9 C

0 W/m

0.00 mm

02:15

13.9 C

1004.4 hpa

82 %

14.5 km/h aus 105

27.4 km/h aus SW

10.9 C

12.2 C

12.3 C

13.8 C

0 W/m

0.00 mm

02:20

13.9 C

1004.4 hpa

82 %

11.3 km/h aus 107

22.5 km/h aus SW

10.9 C

13.0 C

13.1 C

13.8 C

0 W/m

0.00 mm

02:25

13.8 C

1004.4 hpa

82 %

11.3 km/h aus 104

25.7 km/h aus SW

10.8 C

12.9 C

13.1 C

13.7 C

0 W/m

0.00 mm

02:30

13.8 C

1004.4 hpa

83 %

12.9 km/h aus 107

22.5 km/h aus SSW

10.9 C

12.5 C

12.6 C

13.7 C

0 W/m

0.00 mm

02:35

13.7 C

1004.4 hpa

83 %

12.9 km/h aus 107

25.7 km/h aus S

10.8 C

12.3 C

12.4 C

13.6 C

0 W/m

0.00 mm

02:40

13.6 C

1004.4 hpa

84 %

14.5 km/h aus 103

25.7 km/h aus SW

10.9 C

11.8 C

11.9 C

13.5 C

0 W/m

0.00 mm

02:45

13.4 C

1004.4 hpa

85 %

12.9 km/h aus 108

24.1 km/h aus S

11.0 C

12.1 C

12.2 C

13.4 C

0 W/m

0.00 mm

02:50

13.3 C

1004.4 hpa

85 %

19.3 km/h aus 106

30.6 km/h aus SSW

10.8 C

10.6 C

10.6 C

13.2 C

0 W/m

0.00 mm

02:55

13.2 C

1004.4 hpa

86 %

12.9 km/h aus 99

22.5 km/h aus SSW

10.9 C

11.8 C

11.8 C

13.1 C

0 W/m

0.25 mm

03:00

13.1 C

1004.4 hpa

87 %

12.9 km/h aus 107

20.9 km/h aus SSW

10.9 C

11.7 C

11.7 C

13.1 C

0 W/m

0.00 mm

03:05

12.8 C

1004.4 hpa

87 %

16.1 km/h aus 101

32.2 km/h aus SSW

10.7 C

10.7 C

10.7 C

12.8 C

0 W/m

0.25 mm

03:10

12.6 C

1004.4 hpa

87 %

16.1 km/h aus 109

30.6 km/h aus SSW

10.5 C

10.4 C

10.4 C

12.6 C

0 W/m

0.00 mm

03:15

12.4 C

1004.3 hpa

86 %

12.9 km/h aus 104

25.7 km/h aus WSW

10.1 C

10.9 C

10.9 C

12.3 C

0 W/m

0.25 mm

03:20

12.2 C

1004.3 hpa

86 %

16.1 km/h aus 110

30.6 km/h aus SW

9.9 C

9.9 C

9.9 C

12.1 C

0 W/m

0.00 mm

03:25

12.0 C

1004.3 hpa

86 %

9.7 km/h aus 103

22.5 km/h aus SW

9.7 C

11.0 C

11.1 C

11.9 C

0 W/m

0.00 mm

03:30

11.9 C

1004.2 hpa

87 %

9.7 km/h aus 105

22.5 km/h aus SW

9.8 C

10.9 C

10.9 C

11.9 C

0 W/m

0.25 mm

03:35

11.8 C

1004.2 hpa

87 %

8.0 km/h aus 111

20.9 km/h aus SSW

9.7 C

11.1 C

11.1 C

11.8 C

0 W/m

0.00 mm

03:40

11.8 C

1004.2 hpa

88 %

9.7 km/h aus 107

17.7 km/h aus SW

9.9 C

10.8 C

10.8 C

11.8 C

0 W/m

0.51 mm

03:45

11.7 C

1004.3 hpa

88 %

9.7 km/h aus 96

20.9 km/h aus SW

9.7 C

10.7 C

10.7 C

11.7 C

0 W/m

0.25 mm

03:50

11.6 C

1004.3 hpa

89 %

6.4 km/h aus 110

17.7 km/h aus WSW

9.9 C

11.3 C

11.2 C

11.7 C

0 W/m

0.25 mm

03:55

11.6 C

1004.3 hpa

90 %

8.0 km/h aus 107

19.3 km/h aus SW

10.0 C

10.9 C

10.8 C

11.6 C

0 W/m

0.25 mm

04:00

11.6 C

1004.0 hpa

90 %

8.0 km/h aus 108

19.3 km/h aus SW

10.0 C

10.9 C

10.8 C

11.6 C

0 W/m

0.00 mm

04:05

11.6 C

1004.0 hpa

90 %

9.7 km/h aus 111

16.1 km/h aus SW

10.0 C

10.7 C

10.6 C

11.7 C

0 W/m

0.00 mm

04:10

11.7 C

1004.0 hpa

91 %

9.7 km/h aus 111

22.5 km/h aus SW

10.2 C

10.7 C

10.7 C

11.7 C

0 W/m

0.25 mm

04:15

11.7 C

1003.9 hpa

91 %

9.7 km/h aus 107

22.5 km/h aus SW

10.2 C

10.7 C

10.7 C

11.7 C

0 W/m

0.00 mm

04:20

11.7 C

1003.9 hpa

91 %

9.7 km/h aus 104

20.9 km/h aus WSW

10.2 C

10.7 C

10.7 C

11.7 C

0 W/m

0.25 mm

04:25

11.7 C

1003.9 hpa

91 %

8.0 km/h aus 106

16.1 km/h aus SW

10.3 C

11.1 C

11.0 C

11.8 C

0 W/m

0.00 mm

04:30

11.7 C

1003.8 hpa

91 %

8.0 km/h aus 104

16.1 km/h aus SW

10.3 C

11.1 C

11.0 C

11.8 C

0 W/m

0.00 mm

04:35

11.7 C

1003.8 hpa

91 %

8.0 km/h aus 109

17.7 km/h aus SW

10.3 C

11.1 C

11.0 C

11.8 C

0 W/m

0.00 mm

04:40

11.8 C

1003.8 hpa

92 %

6.4 km/h aus 109

11.3 km/h aus SW

10.5 C

11.5 C

11.4 C

11.9 C

0 W/m

0.00 mm

04:45

11.8 C

1003.8 hpa

92 %

9.7 km/h aus 106

22.5 km/h aus SSW

10.6 C

11.0 C

10.9 C

11.9 C

0 W/m

0.00 mm

04:50

11.8 C

1003.8 hpa

92 %

4.8 km/h aus 113

11.3 km/h aus SW

10.6 C

11.9 C

11.8 C

11.9 C

0 W/m

0.00 mm

04:55

11.9 C

1003.8 hpa

92 %

9.7 km/h aus 109

19.3 km/h aus SSW

10.6 C

11.1 C

10.9 C

12.0 C

0 W/m

0.00 mm

05:00

11.9 C

1003.5 hpa

92 %

11.3 km/h aus 109

19.3 km/h aus SSW

10.7 C

10.9 C

10.8 C

12.1 C

0 W/m

0.00 mm

05:05

11.9 C

1003.5 hpa

92 %

11.3 km/h aus 107

22.5 km/h aus SW

10.7 C

10.9 C

10.8 C

12.1 C

0 W/m

0.00 mm

05:10

12.0 C

1003.5 hpa

92 %

8.0 km/h aus 110

17.7 km/h aus SW

10.7 C

11.4 C

11.3 C

12.1 C

0 W/m

0.00 mm

05:15

12.0 C

1003.4 hpa

92 %

8.0 km/h aus 107

14.5 km/h aus SSW

10.7 C

11.4 C

11.3 C

12.1 C

0 W/m

0.00 mm

05:20

12.0 C

1003.4 hpa

92 %

11.3 km/h aus 105

22.5 km/h aus SW

10.7 C

10.9 C

10.8 C

12.1 C

0 W/m

0.00 mm

05:25

12.0 C

1003.4 hpa

92 %

9.7 km/h aus 105

20.9 km/h aus SSW

10.7 C

11.2 C

11.1 C

12.1 C

0 W/m

0.00 mm

05:30

12.1 C

1003.4 hpa

92 %

11.3 km/h aus 108

25.7 km/h aus SW

10.8 C

11.0 C

10.9 C

12.2 C

0 W/m

0.00 mm

05:35

12.1 C

1003.4 hpa

92 %

11.3 km/h aus 99

20.9 km/h aus SSW

10.8 C

11.0 C

10.9 C

12.2 C

0 W/m

0.00 mm

05:40

12.1 C

1003.4 hpa

92 %

11.3 km/h aus 102

22.5 km/h aus SSW

10.8 C

11.0 C

10.9 C

12.2 C

0 W/m

0.00 mm

05:45

12.1 C

1003.4 hpa

92 %

12.9 km/h aus 111

20.9 km/h aus SSW

10.8 C

10.6 C

10.5 C

12.2 C

0 W/m

0.00 mm

05:50

12.1 C

1003.4 hpa

92 %

12.9 km/h aus 103

24.1 km/h aus SSW

10.8 C

10.6 C

10.5 C

12.2 C

0 W/m

0.00 mm

05:55

12.1 C

1003.4 hpa

92 %

12.9 km/h aus 103

20.9 km/h aus SSW

10.9 C

10.7 C

10.6 C

12.2 C

0 W/m

0.00 mm

06:00

12.1 C

1003.4 hpa

92 %

9.7 km/h aus 107

20.9 km/h aus SSW

10.9 C

11.3 C

11.2 C

12.2 C

0 W/m

0.00 mm

06:05

12.1 C

1003.4 hpa

92 %

12.9 km/h aus 101

22.5 km/h aus SSW

10.9 C

10.7 C

10.6 C

12.2 C

0 W/m

0.00 mm

06:10

12.1 C

1003.4 hpa

92 %

12.9 km/h aus 105

22.5 km/h aus SSW

10.9 C

10.7 C

10.6 C

12.2 C

0 W/m

0.00 mm

06:15

12.1 C

1003.4 hpa

92 %

9.7 km/h aus 110

19.3 km/h aus WSW

10.9 C

11.3 C

11.2 C

12.2 C

0 W/m

0.00 mm

06:20

12.1 C

1003.4 hpa

92 %

12.9 km/h aus 107

24.1 km/h aus SSW

10.9 C

10.7 C

10.6 C

12.2 C

0 W/m

0.00 mm

06:25

12.1 C

1003.4 hpa

92 %

14.5 km/h aus 103

27.4 km/h aus SSW

10.9 C

10.3 C

10.2 C

12.2 C

0 W/m

0.00 mm

06:30

12.1 C

1003.4 hpa

92 %

14.5 km/h aus 106

27.4 km/h aus SSW

10.9 C

10.3 C

10.2 C

12.2 C

0 W/m

0.00 mm

06:35

12.1 C

1003.4 hpa

91 %

14.5 km/h aus 106

24.1 km/h aus S

10.7 C

10.3 C

10.2 C

12.2 C

0 W/m

0.00 mm

06:40

12.1 C

1003.4 hpa

91 %

12.9 km/h aus 103

22.5 km/h aus SSW

10.6 C

10.6 C

10.5 C

12.1 C

0 W/m

0.00 mm

06:45

12.1 C

1003.5 hpa

91 %

12.9 km/h aus 99

27.4 km/h aus SW

10.6 C

10.6 C

10.5 C

12.1 C

0 W/m

0.00 mm

06:50

12.0 C

1003.5 hpa

91 %

12.9 km/h aus 106

27.4 km/h aus SW

10.6 C

10.5 C

10.4 C

12.1 C

0 W/m

0.00 mm

06:55

12.0 C

1003.5 hpa

91 %

14.5 km/h aus 106

27.4 km/h aus SW

10.6 C

10.1 C

10.1 C

12.1 C

0 W/m

0.00 mm

07:00

12.1 C

1003.5 hpa

91 %

14.5 km/h aus 110

24.1 km/h aus SW

10.6 C

10.2 C

10.1 C

12.1 C

0 W/m

0.00 mm

07:05

12.0 C

1003.5 hpa

91 %

16.1 km/h aus 112

25.7 km/h aus SW

10.6 C

9.8 C

9.7 C

12.1 C

0 W/m

0.00 mm

07:10

12.0 C

1003.5 hpa

91 %

14.5 km/h aus 105

24.1 km/h aus S

10.6 C

10.1 C

10.1 C

12.1 C

0 W/m

0.25 mm

07:15

12.0 C

1003.7 hpa

92 %

16.1 km/h aus 105

24.1 km/h aus SSW

10.7 C

9.8 C

9.7 C

12.1 C

0 W/m

0.00 mm

07:20

12.0 C

1003.7 hpa

92 %

14.5 km/h aus 108

22.5 km/h aus SW

10.7 C

10.2 C

10.1 C

12.1 C

0 W/m

0.00 mm

07:25

11.9 C

1003.7 hpa

92 %

12.9 km/h aus 102

17.7 km/h aus SSW

10.7 C

10.5 C

10.4 C

12.1 C

0 W/m

0.25 mm

07:30

11.9 C

1003.5 hpa

92 %

9.7 km/h aus 101

17.7 km/h aus SSW

10.7 C

11.1 C

11.0 C

12.1 C

0 W/m

0.00 mm

07:35

11.9 C

1003.5 hpa

92 %

8.0 km/h aus 108

16.1 km/h aus SSW

10.7 C

11.4 C

11.3 C

12.1 C

0 W/m

0.00 mm

07:40

11.9 C

1003.5 hpa

92 %

8.0 km/h aus 108

19.3 km/h aus S

10.7 C

11.4 C

11.3 C

12.1 C

0 W/m

0.00 mm

07:45

12.0 C

1003.8 hpa

92 %

14.5 km/h aus 106

24.1 km/h aus SSW

10.7 C

10.2 C

10.1 C

12.1 C

0 W/m

0.00 mm

07:50

12.0 C

1003.8 hpa

92 %

16.1 km/h aus 111

29.0 km/h aus SSW

10.7 C

9.8 C

9.7 C

12.1 C

0 W/m

0.00 mm

07:55

12.1 C

1003.8 hpa

92 %

11.3 km/h aus 102

22.5 km/h aus SW

10.8 C

11.0 C

10.9 C

12.2 C

0 W/m

0.00 mm

08:00

12.1 C

1003.9 hpa

92 %

12.9 km/h aus 106

19.3 km/h aus SW

10.9 C

10.7 C

10.6 C

12.2 C

0 W/m

0.00 mm

08:05

12.2 C

1003.9 hpa

92 %

12.9 km/h aus 103

24.1 km/h aus SSW

10.9 C

10.7 C

10.7 C

12.2 C

0 W/m

0.00 mm

08:10

12.2 C

1003.9 hpa

91 %

12.9 km/h aus 110

20.9 km/h aus SW

10.7 C

10.7 C

10.7 C

12.2 C

0 W/m

0.00 mm

08:15

12.2 C

1003.9 hpa

92 %

11.3 km/h aus 106

24.1 km/h aus S

11.0 C

11.2 C

11.1 C

12.3 C

0 W/m

0.00 mm

08:20

12.3 C

1003.9 hpa

91 %

11.3 km/h aus 109

22.5 km/h aus SW

10.9 C

11.2 C

11.2 C

12.3 C

0 W/m

0.00 mm

08:25

12.3 C

1003.9 hpa

91 %

12.9 km/h aus 115

25.7 km/h aus SSW

10.9 C

10.8 C

10.8 C

12.3 C

0 W/m

0.00 mm

08:30

12.3 C

1003.9 hpa

91 %

9.7 km/h aus 106

19.3 km/h aus SW

10.9 C

11.5 C

11.4 C

12.4 C

0 W/m

0.00 mm

08:35

12.4 C

1003.9 hpa

91 %

12.9 km/h aus 104

25.7 km/h aus SSW

11.0 C

11.0 C

10.9 C

12.4 C

0 W/m

0.00 mm

08:40

12.4 C

1003.9 hpa

91 %

12.9 km/h aus 110

22.5 km/h aus SSW

11.0 C

11.1 C

11.0 C

12.5 C

0 W/m

0.00 mm

08:45

12.5 C

1003.9 hpa

91 %

12.9 km/h aus 103

27.4 km/h aus SSW

11.1 C

11.1 C

11.1 C

12.6 C

0 W/m

0.00 mm

08:50

12.6 C

1003.9 hpa

90 %

14.5 km/h aus 106

27.4 km/h aus SW

11.0 C

10.8 C

10.7 C

12.6 C

0 W/m

0.00 mm

08:55

12.6 C

1003.9 hpa

90 %

14.5 km/h aus 105

27.4 km/h aus S

11.0 C

10.8 C

10.8 C

12.7 C

0 W/m

0.00 mm

09:00

12.6 C

1004.0 hpa

90 %

16.1 km/h aus 103

27.4 km/h aus SSW

11.0 C

10.5 C

10.4 C

12.7 C

0 W/m

0.00 mm

09:05

12.6 C

1004.0 hpa

90 %

14.5 km/h aus 104

25.7 km/h aus SW

11.0 C

10.8 C

10.8 C

12.7 C

0 W/m

0.00 mm

09:10

12.7 C

1004.0 hpa

90 %

14.5 km/h aus 105

25.7 km/h aus S

11.1 C

10.9 C

10.9 C

12.7 C

0 W/m

0.00 mm

09:15

12.7 C

1004.0 hpa

90 %

14.5 km/h aus 107

27.4 km/h aus SSW

11.1 C

10.9 C

10.9 C

12.7 C

0 W/m

0.00 mm

09:20

12.7 C

1004.0 hpa

89 %

14.5 km/h aus 110

24.1 km/h aus WSW

11.0 C

11.0 C

10.9 C

12.8 C

0 W/m

0.00 mm

09:25

12.8 C

1004.0 hpa

89 %

14.5 km/h aus 105

24.1 km/h aus SSW

11.0 C

11.1 C

11.0 C

12.8 C

0 W/m

0.00 mm

09:30

12.8 C

1004.0 hpa

89 %

12.9 km/h aus 111

25.7 km/h aus SSW

11.1 C

11.5 C

11.4 C

12.9 C

0 W/m

0.00 mm

09:35

12.8 C

1004.0 hpa

89 %

9.7 km/h aus 108

19.3 km/h aus SSW

11.1 C

12.1 C

12.1 C

12.9 C

0 W/m

0.00 mm

09:40

12.8 C

1004.0 hpa

89 %

12.9 km/h aus 104

25.7 km/h aus SSW

11.1 C

11.5 C

11.4 C

12.9 C

0 W/m

0.00 mm

09:45

12.9 C

1004.0 hpa

89 %

14.5 km/h aus 106

24.1 km/h aus SSW

11.1 C

11.2 C

11.1 C

12.9 C

0 W/m

0.00 mm

09:50

12.9 C

1004.0 hpa

89 %

16.1 km/h aus 111

27.4 km/h aus SSW

11.2 C

10.9 C

10.8 C

13.0 C

0 W/m

0.00 mm

09:55

12.9 C

1004.0 hpa

89 %

12.9 km/h aus 112

24.1 km/h aus SW

11.2 C

11.7 C

11.6 C

13.0 C

0 W/m

0.00 mm

10:00

13.1 C

1004.1 hpa

89 %

11.3 km/h aus 107

22.5 km/h aus SSW

11.3 C

12.2 C

12.1 C

13.1 C

0 W/m

0.00 mm

10:05

13.2 C

1004.1 hpa

88 %

12.9 km/h aus 107

27.4 km/h aus SW

11.2 C

11.8 C

11.8 C

13.2 C

0 W/m

0.00 mm

10:10

13.3 C

1004.1 hpa

88 %

12.9 km/h aus 107

29.0 km/h aus SSW

11.4 C

12.1 C

12.1 C

13.3 C

0 W/m

0.00 mm

10:15

13.4 C

1004.0 hpa

88 %

16.1 km/h aus 109

27.4 km/h aus SW

11.5 C

11.4 C

11.4 C

13.4 C

0 W/m

0.00 mm

10:20

13.7 C

1004.0 hpa

88 %

14.5 km/h aus 105

29.0 km/h aus SSW

11.7 C

12.1 C

12.1 C

13.7 C

0 W/m

0.00 mm

10:25

13.8 C

1004.0 hpa

87 %

9.7 km/h aus 105

19.3 km/h aus SSW

11.7 C

13.3 C

13.3 C

13.8 C

0 W/m

0.00 mm

10:30

13.9 C

1004.1 hpa

87 %

16.1 km/h aus 111

29.0 km/h aus SSW

11.8 C

11.9 C

11.9 C

13.9 C

0 W/m

0.00 mm

10:35

13.9 C

1004.1 hpa

86 %

17.7 km/h aus 106

29.0 km/h aus SW

11.6 C

11.6 C

11.7 C

13.9 C

0 W/m

0.00 mm

10:40

13.9 C

1004.1 hpa

85 %

19.3 km/h aus 110

37.0 km/h aus SSW

11.5 C

11.3 C

11.3 C

13.9 C

0 W/m

0.00 mm

10:45

14.1 C

1004.1 hpa

85 %

12.9 km/h aus 107

22.5 km/h aus SW

11.6 C

12.9 C

13.0 C

14.1 C

0 W/m

0.00 mm

11:00

14.3 C

1004.0 hpa

84 %

17.7 km/h aus 49

29.0 km/h aus SW

11.6 C

12.0 C

12.1 C

14.2 C

0 W/m

0.00 mm

11:05

14.3 C

1004.0 hpa

84 %

17.7 km/h aus 108

30.6 km/h aus SSW

11.7 C

12.1 C

12.1 C

14.3 C

0 W/m

0.00 mm

11:10

14.4 C

1004.0 hpa

83 %

14.5 km/h aus 90

32.2 km/h aus SW

11.6 C

12.9 C

12.9 C

14.4 C

0 W/m

0.00 mm

11:15

14.4 C

1004.1 hpa

83 %

19.3 km/h aus 91

37.0 km/h aus WSW

11.6 C

11.9 C

11.9 C

14.4 C

0 W/m

0.00 mm

11:20

14.5 C

1004.1 hpa

83 %

16.1 km/h aus 88

30.6 km/h aus S

11.6 C

12.6 C

12.6 C

14.4 C

0 W/m

0.00 mm

11:25

14.7 C

1004.1 hpa

83 %

14.5 km/h aus 108

30.6 km/h aus WSW

11.8 C

13.2 C

13.2 C

14.6 C

0 W/m

0.00 mm

11:30

14.8 C

1003.9 hpa

83 %

12.9 km/h aus 106

25.7 km/h aus WSW

12.0 C

13.8 C

13.8 C

14.8 C

0 W/m

0.00 mm

11:35

14.8 C

1003.9 hpa

82 %

17.7 km/h aus 105

33.8 km/h aus SSW

11.8 C

12.6 C

12.7 C

14.8 C

0 W/m

0.00 mm

11:40

14.9 C

1003.9 hpa

82 %

17.7 km/h aus 111

33.8 km/h aus WSW

11.8 C

12.7 C

12.8 C

14.8 C

0 W/m

0.00 mm

11:45

14.8 C

1004.2 hpa

81 %

20.9 km/h aus 107

35.4 km/h aus SW

11.5 C

11.9 C

12.1 C

14.7 C

0 W/m

0.00 mm

11:50

14.7 C

1004.2 hpa

81 %

20.9 km/h aus 104

37.0 km/h aus SW

11.5 C

11.9 C

12.0 C

14.6 C

0 W/m

0.00 mm

11:55

14.8 C

1004.2 hpa

82 %

14.5 km/h aus 105

32.2 km/h aus SW

11.7 C

13.3 C

13.3 C

14.7 C

0 W/m

0.00 mm

12:00

14.8 C

1004.2 hpa

82 %

19.3 km/h aus 111

41.8 km/h aus SSW

11.7 C

12.3 C

12.3 C

14.7 C

0 W/m

0.00 mm

12:05

14.7 C

1004.2 hpa

82 %

12.9 km/h aus 110

35.4 km/h aus SW

11.7 C

13.7 C

13.7 C

14.7 C

0 W/m

0.00 mm

12:10

14.6 C

1004.2 hpa

82 %

16.1 km/h aus 104

25.7 km/h aus W

11.6 C

12.7 C

12.8 C

14.6 C

0 W/m

0.00 mm

12:15

14.6 C

1004.2 hpa

82 %

17.7 km/h aus 111

32.2 km/h aus SSW

11.6 C

12.4 C

12.4 C

14.6 C

0 W/m

0.00 mm

12:20

14.7 C

1004.2 hpa

83 %

16.1 km/h aus 114

25.7 km/h aus SSW

11.8 C

12.8 C

12.8 C

14.6 C

0 W/m

0.00 mm

12:25

14.7 C

1004.2 hpa

82 %

14.5 km/h aus 111

33.8 km/h aus SSW

11.7 C

13.2 C

13.3 C

14.7 C

0 W/m

0.00 mm

12:30

14.7 C

1004.1 hpa

82 %

14.5 km/h aus 112

29.0 km/h aus WSW

11.6 C

13.2 C

13.2 C

14.6 C

0 W/m

0.00 mm

12:35

14.7 C

1004.1 hpa

82 %

14.5 km/h aus 108

27.4 km/h aus SSW

11.7 C

13.2 C

13.3 C

14.7 C

0 W/m

0.00 mm

12:40

14.7 C

1004.1 hpa

82 %

16.1 km/h aus 107

27.4 km/h aus SW

11.7 C

12.8 C

12.9 C

14.7 C

0 W/m

0.00 mm

12:45

14.9 C

1003.9 hpa

82 %

16.1 km/h aus 108

33.8 km/h aus S

11.8 C

13.1 C

13.1 C

14.8 C

0 W/m

0.00 mm

12:50

15.0 C

1003.9 hpa

82 %

22.5 km/h aus 115

37.0 km/h aus SSE

12.0 C

12.1 C

12.1 C

14.9 C

0 W/m

0.00 mm

12:55

15.0 C

1003.9 hpa

81 %

17.7 km/h aus 110

33.8 km/h aus SSW

11.8 C

12.8 C

12.9 C

14.9 C

0 W/m

0.00 mm

13:00

15.0 C

1003.9 hpa

81 %

19.3 km/h aus 107

33.8 km/h aus SSW

11.8 C

12.4 C

12.6 C

14.9 C

0 W/m

0.00 mm

13:05

15.0 C

1003.9 hpa

81 %

17.7 km/h aus 107

30.6 km/h aus S

11.8 C

12.8 C

12.9 C

14.9 C

0 W/m

0.00 mm

13:10

15.0 C

1003.9 hpa

81 %

16.1 km/h aus 108

29.0 km/h aus SW

11.8 C

13.1 C

13.2 C

14.9 C

0 W/m

0.00 mm

13:15

15.0 C

1003.9 hpa

81 %

14.5 km/h aus 109

29.0 km/h aus SW

11.8 C

13.5 C

13.6 C

14.9 C

0 W/m

0.00 mm

13:20

15.0 C

1003.9 hpa

81 %

12.9 km/h aus 112

25.7 km/h aus SW

11.8 C

13.9 C

14.1 C

14.9 C

0 W/m

0.00 mm

13:25

15.0 C

1003.9 hpa

80 %

16.1 km/h aus 108

35.4 km/h aus SSW

11.6 C

13.1 C

13.2 C

14.9 C

0 W/m

0.00 mm

13:30

15.0 C

1003.9 hpa

80 %

19.3 km/h aus 108

40.2 km/h aus S

11.6 C

12.4 C

12.6 C

14.9 C

0 W/m

0.00 mm

13:35

15.0 C

1003.9 hpa

81 %

17.7 km/h aus 105

33.8 km/h aus SW

11.8 C

12.8 C

12.9 C

14.9 C

0 W/m

0.00 mm

13:40

15.0 C

1003.9 hpa

81 %

16.1 km/h aus 108

27.4 km/h aus SW

11.8 C

13.1 C

13.2 C

14.9 C

0 W/m

0.00 mm

13:45

15.0 C

1003.8 hpa

81 %

12.9 km/h aus 102

20.9 km/h aus WSW

11.8 C

13.9 C

14.1 C

14.9 C

0 W/m

0.00 mm

13:50

15.0 C

1003.8 hpa

80 %

17.7 km/h aus 105

32.2 km/h aus SW

11.6 C

12.8 C

12.9 C

14.9 C

0 W/m

0.00 mm

13:55

15.0 C

1003.8 hpa

81 %

16.1 km/h aus 104

32.2 km/h aus S

11.8 C

13.1 C

13.2 C

14.9 C

0 W/m

0.00 mm

14:00

14.7 C

1003.8 hpa

83 %

20.9 km/h aus 104

37.0 km/h aus SSW

11.8 C

11.8 C

11.9 C

14.6 C

0 W/m

0.00 mm

14:05

14.3 C

1003.8 hpa

85 %

16.1 km/h aus 107

27.4 km/h aus SW

11.8 C

12.3 C

12.4 C

14.2 C

0 W/m

0.51 mm

14:10

14.0 C

1003.8 hpa

87 %

11.3 km/h aus 106

20.9 km/h aus SSW

11.9 C

13.2 C

13.2 C

14.0 C

0 W/m

0.00 mm

14:15

13.9 C

1003.8 hpa

88 %

16.1 km/h aus 109

25.7 km/h aus SW

12.0 C

12.0 C

12.0 C

13.9 C

0 W/m

0.00 mm

14:20

14.0 C

1003.8 hpa

88 %

14.5 km/h aus 106

25.7 km/h aus SSW

12.0 C

12.4 C

12.4 C

14.0 C

0 W/m

0.00 mm

14:25

14.2 C

1003.8 hpa

88 %

14.5 km/h aus 109

30.6 km/h aus SSW

12.2 C

12.6 C

12.6 C

14.2 C

0 W/m

0.00 mm

14:30

14.3 C

1003.6 hpa

87 %

19.3 km/h aus 111

33.8 km/h aus SSW

12.1 C

11.7 C

11.7 C

14.3 C

0 W/m

0.00 mm

14:35

14.3 C

1003.6 hpa

87 %

17.7 km/h aus 103

29.0 km/h aus SW

12.2 C

12.1 C

12.1 C

14.3 C

0 W/m

0.00 mm

14:40

14.4 C

1003.6 hpa

86 %

14.5 km/h aus 108

32.2 km/h aus SSW

12.1 C

12.8 C

12.9 C

14.3 C

0 W/m

0.00 mm

14:45

14.4 C

1003.8 hpa

86 %

16.1 km/h aus 109

30.6 km/h aus SW

12.1 C

12.5 C

12.6 C

14.4 C

0 W/m

0.00 mm

14:50

14.5 C

1003.8 hpa

85 %

19.3 km/h aus 109

32.2 km/h aus SSW

12.0 C

11.9 C

12.0 C

14.4 C

0 W/m

0.00 mm

14:55

14.5 C

1003.8 hpa

85 %

17.7 km/h aus 109

35.4 km/h aus SW

12.0 C

12.2 C

12.3 C

14.4 C

0 W/m

0.00 mm

15:00

14.5 C

1003.8 hpa

84 %

19.3 km/h aus 112

37.0 km/h aus WSW

11.8 C

11.9 C

12.0 C

14.4 C

0 W/m

0.00 mm

15:05

14.6 C

1003.8 hpa

84 %

19.3 km/h aus 104

30.6 km/h aus SW

11.9 C

12.0 C

12.1 C

14.5 C

0 W/m

0.00 mm

15:10

14.7 C

1003.8 hpa

83 %

16.1 km/h aus 108

32.2 km/h aus SW

11.8 C

12.8 C

12.8 C

14.6 C

0 W/m

0.00 mm

15:15

14.7 C

1003.8 hpa

84 %

11.3 km/h aus 109

24.1 km/h aus SW

12.0 C

14.1 C

14.1 C

14.7 C

0 W/m

0.00 mm

15:20

14.7 C

1003.8 hpa

84 %

12.9 km/h aus 107

27.4 km/h aus SW

12.0 C

13.7 C

13.7 C

14.7 C

0 W/m

0.00 mm

15:25

14.8 C

1003.8 hpa

83 %

17.7 km/h aus 106

29.0 km/h aus S

11.9 C

12.6 C

12.6 C

14.7 C

0 W/m

0.00 mm

15:30

14.8 C

1003.9 hpa

83 %

16.1 km/h aus 105

33.8 km/h aus SSW

11.9 C

12.9 C

12.9 C

14.7 C

0 W/m

0.00 mm

15:35

14.7 C

1003.9 hpa

83 %

16.1 km/h aus 110

37.0 km/h aus SW

11.9 C

12.8 C

12.9 C

14.7 C

0 W/m

0.00 mm

15:40

14.8 C

1003.9 hpa

83 %

14.5 km/h aus 107

33.8 km/h aus SSW

11.9 C

13.3 C

13.3 C

14.7 C

0 W/m

0.00 mm

15:45

14.7 C

1003.6 hpa

83 %

20.9 km/h aus 104

32.2 km/h aus SSW

11.9 C

11.9 C

12.0 C

14.7 C

0 W/m

0.00 mm

15:50

14.7 C

1003.6 hpa

84 %

19.3 km/h aus 106

32.2 km/h aus SSW

12.0 C

12.1 C

12.2 C

14.6 C

0 W/m

0.25 mm

15:55

14.6 C

1003.6 hpa

84 %

16.1 km/h aus 112

24.1 km/h aus SSW

11.9 C

12.6 C

12.7 C

14.5 C

0 W/m

0.00 mm

16:00

14.4 C

1003.4 hpa

85 %

12.9 km/h aus 107

24.1 km/h aus S

12.0 C

13.3 C

13.4 C

14.4 C

0 W/m

0.00 mm

16:05

14.3 C

1003.4 hpa

86 %

14.5 km/h aus 110

32.2 km/h aus SSW

12.0 C

12.8 C

12.8 C

14.3 C

0 W/m

0.25 mm

16:10

14.3 C

1003.4 hpa

86 %

11.3 km/h aus 106

20.9 km/h aus SSW

12.0 C

13.5 C

13.6 C

14.2 C

0 W/m

0.00 mm

16:15

14.3 C

1003.3 hpa

87 %

14.5 km/h aus 105

24.1 km/h aus SSW

12.1 C

12.7 C

12.7 C

14.3 C

0 W/m

0.00 mm

16:20

14.3 C

1003.3 hpa

87 %

12.9 km/h aus 108

24.1 km/h aus SSW

12.2 C

13.3 C

13.3 C

14.3 C

0 W/m

0.00 mm

16:25

14.4 C

1003.3 hpa

87 %

14.5 km/h aus 101

24.1 km/h aus SW

12.3 C

12.9 C

12.9 C

14.4 C

0 W/m

0.00 mm

16:30

14.5 C

1003.4 hpa

86 %

19.3 km/h aus 105

32.2 km/h aus SSW

12.2 C

11.9 C

12.0 C

14.4 C

0 W/m

0.00 mm

16:35

14.6 C

1003.4 hpa

86 %

17.7 km/h aus 104

33.8 km/h aus SSW

12.2 C

12.3 C

12.3 C

14.6 C

0 W/m

0.00 mm

16:40

14.6 C

1003.4 hpa

85 %

16.1 km/h aus 108

30.6 km/h aus SSW

12.1 C

12.7 C

12.8 C

14.6 C

0 W/m

0.00 mm

16:45

14.7 C

1003.3 hpa

85 %

17.7 km/h aus 108

29.0 km/h aus SSW

12.2 C

12.4 C

12.5 C

14.6 C

0 W/m

0.00 mm

16:50

14.6 C

1003.3 hpa

86 %

14.5 km/h aus 110

25.7 km/h aus SSW

12.2 C

13.1 C

13.1 C

14.6 C

0 W/m

0.25 mm

16:55

14.4 C

1003.3 hpa

87 %

14.5 km/h aus 107

27.4 km/h aus SSW

12.3 C

12.9 C

12.9 C

14.4 C

0 W/m

0.00 mm

17:00

14.2 C

1003.2 hpa

88 %

14.5 km/h aus 109

29.0 km/h aus SSW

12.3 C

12.7 C

12.7 C

14.2 C

0 W/m

0.25 mm

17:05

14.1 C

1003.2 hpa

89 %

14.5 km/h aus 113

24.1 km/h aus SW

12.3 C

12.6 C

12.5 C

14.1 C

0 W/m

0.00 mm

17:10

14.0 C

1003.2 hpa

89 %

12.9 km/h aus 110

24.1 km/h aus SW

12.2 C

12.9 C

12.8 C

14.1 C

0 W/m

0.00 mm

17:15

14.0 C

1003.2 hpa

90 %

14.5 km/h aus 109

29.0 km/h aus SSE

12.4 C

12.4 C

12.4 C

14.1 C

0 W/m

0.00 mm

17:20

14.0 C

1003.2 hpa

90 %

17.7 km/h aus 109

29.0 km/h aus SSW

12.4 C

11.8 C

11.7 C

14.1 C

0 W/m

0.00 mm

17:25

14.0 C

1003.2 hpa

90 %

12.9 km/h aus 105

24.1 km/h aus S

12.4 C

12.9 C

12.8 C

14.1 C

0 W/m

0.00 mm

17:30

14.0 C

1003.4 hpa

90 %

14.5 km/h aus 105

27.4 km/h aus WSW

12.4 C

12.4 C

12.4 C

14.1 C

0 W/m

0.25 mm

17:35

13.9 C

1003.4 hpa

90 %

12.9 km/h aus 107

25.7 km/h aus SSW

12.3 C

12.8 C

12.7 C

13.9 C

0 W/m

0.00 mm

17:40

13.8 C

1003.4 hpa

91 %

11.3 km/h aus 111

20.9 km/h aus SSW

12.4 C

13.1 C

13.1 C

13.9 C

0 W/m

0.25 mm

17:45

13.8 C

1003.4 hpa

91 %

12.9 km/h aus 104

22.5 km/h aus SW

12.3 C

12.7 C

12.6 C

13.8 C

0 W/m

0.00 mm

17:50

13.7 C

1003.4 hpa

91 %

11.3 km/h aus 111

25.7 km/h aus SW

12.3 C

12.9 C

12.9 C

13.8 C

0 W/m

0.51 mm

17:55

13.7 C

1003.4 hpa

91 %

14.5 km/h aus 105

30.6 km/h aus SW

12.2 C

12.1 C

12.1 C

13.7 C

0 W/m

0.25 mm

18:00

13.7 C

1003.4 hpa

92 %

9.7 km/h aus 105

19.3 km/h aus SW

12.4 C

13.1 C

13.1 C

13.7 C

0 W/m

0.00 mm

18:05

13.7 C

1003.4 hpa

92 %

11.3 km/h aus 101

25.7 km/h aus SW

12.4 C

12.9 C

12.8 C

13.7 C

0 W/m

0.00 mm

18:10

13.7 C

1003.4 hpa

92 %

11.3 km/h aus 111

24.1 km/h aus SSW

12.4 C

12.9 C

12.8 C

13.7 C

0 W/m

0.00 mm

18:15

13.7 C

1003.4 hpa

92 %

8.0 km/h aus 107

17.7 km/h aus SW

12.4 C

13.4 C

13.4 C

13.8 C

0 W/m

0.25 mm

18:20

13.7 C

1003.4 hpa

92 %

9.7 km/h aus 105

19.3 km/h aus SSW

12.4 C

13.2 C

13.1 C

13.8 C

0 W/m

0.00 mm

18:25

13.7 C

1003.4 hpa

92 %

9.7 km/h aus 110

20.9 km/h aus SW

12.4 C

13.2 C

13.1 C

13.8 C

0 W/m

0.00 mm

18:30

13.8 C

1003.4 hpa

92 %

11.3 km/h aus 107

22.5 km/h aus SSW

12.5 C

13.1 C

13.0 C

13.8 C

0 W/m

0.00 mm

18:35

13.8 C

1003.4 hpa

92 %

11.3 km/h aus 106

22.5 km/h aus SSW

12.5 C

13.1 C

13.0 C

13.8 C

0 W/m

0.00 mm

18:40

13.8 C

1003.4 hpa

93 %

8.0 km/h aus 106

17.7 km/h aus SW

12.7 C

13.6 C

13.4 C

13.9 C

0 W/m

0.25 mm

18:45

13.8 C

1003.5 hpa

93 %

8.0 km/h aus 107

22.5 km/h aus SW

12.7 C

13.6 C

13.5 C

13.9 C

0 W/m

0.00 mm

18:50

13.9 C

1003.5 hpa

93 %

8.0 km/h aus 112

19.3 km/h aus SW

12.8 C

13.7 C

13.6 C

14.0 C

0 W/m

0.00 mm

18:55

13.9 C

1003.5 hpa

93 %

11.3 km/h aus 110

17.7 km/h aus SW

12.8 C

13.2 C

13.1 C

14.0 C

0 W/m

0.00 mm

19:00

14.0 C

1003.4 hpa

93 %

9.7 km/h aus 105

20.9 km/h aus SSW

12.9 C

13.6 C

13.4 C

14.1 C

0 W/m

0.00 mm

19:05

14.0 C

1003.4 hpa

93 %

12.9 km/h aus 111

27.4 km/h aus SSW

12.9 C

12.9 C

12.8 C

14.1 C

0 W/m

0.00 mm

19:10

14.0 C

1003.4 hpa

93 %

11.3 km/h aus 109

19.3 km/h aus SW

12.9 C

13.3 C

13.2 C

14.1 C

0 W/m

0.00 mm

19:15

14.0 C

1003.6 hpa

92 %

12.9 km/h aus 104

22.5 km/h aus SW

12.7 C

12.9 C

12.8 C

14.1 C

0 W/m

0.00 mm

19:20

13.9 C

1003.6 hpa

92 %

14.5 km/h aus 108

30.6 km/h aus SW

12.7 C

12.4 C

12.3 C

14.0 C

0 W/m

0.00 mm

19:25

13.9 C

1003.6 hpa

92 %

14.5 km/h aus 110

29.0 km/h aus WSW

12.6 C

12.3 C

12.3 C

13.9 C

0 W/m

0.00 mm

19:30

13.9 C

1003.9 hpa

92 %

11.3 km/h aus 107

27.4 km/h aus WSW

12.6 C

13.2 C

13.1 C

13.9 C

0 W/m

0.00 mm

19:35

13.9 C

1003.9 hpa

92 %

9.7 km/h aus 105

20.9 km/h aus W

12.6 C

13.4 C

13.3 C

13.9 C

0 W/m

0.00 mm

19:40

13.9 C

1003.9 hpa

91 %

11.3 km/h aus 102

19.3 km/h aus SSW

12.5 C

13.2 C

13.2 C

14.0 C

0 W/m

0.00 mm

19:45

13.9 C

1004.0 hpa

91 %

8.0 km/h aus 107

16.1 km/h aus SW

12.5 C

13.7 C

13.6 C

14.0 C

0 W/m

0.00 mm

19:50

13.9 C

1004.0 hpa

91 %

9.7 km/h aus 107

16.1 km/h aus W

12.5 C

13.4 C

13.4 C

14.0 C

0 W/m

0.25 mm

19:55

13.9 C

1004.0 hpa

91 %

8.0 km/h aus 112

14.5 km/h aus W

12.4 C

13.6 C

13.6 C

13.9 C

0 W/m

0.00 mm

20:00

13.9 C

1004.4 hpa

91 %

6.4 km/h aus 109

12.9 km/h aus WNW

12.4 C

13.9 C

13.9 C

13.9 C

0 W/m

1.78 mm

20:05

13.8 C

1004.4 hpa

92 %

9.7 km/h aus 108

20.9 km/h aus W

12.5 C

13.3 C

13.2 C

13.8 C

0 W/m

0.76 mm

20:10

13.7 C

1004.4 hpa

92 %

8.0 km/h aus 106

16.1 km/h aus WSW

12.4 C

13.4 C

13.4 C

13.8 C

0 W/m

0.25 mm

20:15

13.7 C

1004.7 hpa

92 %

11.3 km/h aus 107

30.6 km/h aus WSW

12.4 C

12.9 C

12.8 C

13.7 C

0 W/m

0.51 mm

20:20

13.6 C

1004.7 hpa

92 %

11.3 km/h aus 109

17.7 km/h aus WSW

12.3 C

12.8 C

12.7 C

13.6 C

0 W/m

0.51 mm

20:25

13.4 C

1004.7 hpa

92 %

9.7 km/h aus 105

19.3 km/h aus W

12.2 C

12.8 C

12.8 C

13.5 C

0 W/m

0.51 mm

20:30

13.4 C

1005.0 hpa

92 %

6.4 km/h aus 109

17.7 km/h aus WSW

12.1 C

13.3 C

13.3 C

13.4 C

0 W/m

0.00 mm

20:35

13.3 C

1005.0 hpa

93 %

8.0 km/h aus 107

17.7 km/h aus WSW

12.2 C

13.1 C

12.9 C

13.4 C

0 W/m

0.25 mm

20:40

13.3 C

1005.0 hpa

93 %

8.0 km/h aus 110

19.3 km/h aus W

12.2 C

13.1 C

12.9 C

13.4 C

0 W/m

0.00 mm

20:45

13.3 C

1005.4 hpa

93 %

6.4 km/h aus 104

14.5 km/h aus NW

12.2 C

13.3 C

13.2 C

13.4 C

0 W/m

0.00 mm

20:50

13.3 C

1005.4 hpa

93 %

6.4 km/h aus 102

16.1 km/h aus W

12.2 C

13.3 C

13.2 C

13.4 C

0 W/m

0.00 mm

20:55

13.3 C

1005.4 hpa

93 %

6.4 km/h aus 101

14.5 km/h aus W

12.2 C

13.3 C

13.2 C

13.4 C

0 W/m

0.25 mm

21:00

13.3 C

1005.5 hpa

93 %

4.8 km/h aus 109

14.5 km/h aus WSW

12.2 C

13.4 C

13.3 C

13.4 C

0 W/m

0.00 mm

21:05

13.3 C

1005.5 hpa

93 %

6.4 km/h aus 108

16.1 km/h aus SW

12.2 C

13.3 C

13.2 C

13.4 C

0 W/m

0.00 mm

21:10

13.3 C

1005.5 hpa

93 %

6.4 km/h aus 101

17.7 km/h aus SSW

12.2 C

13.3 C

13.2 C

13.4 C

0 W/m

0.00 mm

21:15

13.3 C

1005.6 hpa

93 %

8.0 km/h aus 105

19.3 km/h aus SW

12.2 C

13.0 C

12.9 C

13.4 C

0 W/m

0.00 mm

21:20

13.3 C

1005.6 hpa

93 %

4.8 km/h aus 113

16.1 km/h aus SW

12.2 C

13.4 C

13.3 C

13.4 C

0 W/m

0.00 mm

21:25

13.3 C

1005.6 hpa

93 %

4.8 km/h aus 111

17.7 km/h aus SW

12.2 C

13.4 C

13.3 C

13.4 C

0 W/m

0.00 mm

21:30

13.2 C

1006.0 hpa

93 %

6.4 km/h aus 106

16.1 km/h aus WSW

12.1 C

13.2 C

13.1 C

13.3 C

0 W/m

0.00 mm

21:35

13.2 C

1006.0 hpa

94 %

6.4 km/h aus 107

17.7 km/h aus WSW

12.3 C

13.2 C

13.1 C

13.3 C

0 W/m

0.00 mm

21:40

13.2 C

1006.0 hpa

94 %

6.4 km/h aus 109

11.3 km/h aus SW

12.3 C

13.2 C

13.1 C

13.3 C

0 W/m

0.00 mm

21:45

13.2 C

1006.0 hpa

94 %

4.8 km/h aus 110

11.3 km/h aus WSW

12.3 C

13.3 C

13.2 C

13.3 C

0 W/m

0.00 mm

21:50

13.2 C

1006.0 hpa

94 %

6.4 km/h aus 107

16.1 km/h aus W

12.2 C

13.1 C

13.0 C

13.3 C

0 W/m

0.00 mm

21:55

13.2 C

1006.0 hpa

94 %

6.4 km/h aus 111

16.1 km/h aus WSW

12.2 C

13.1 C

13.0 C

13.3 C

0 W/m

0.00 mm

22:00

13.2 C

1006.0 hpa

94 %

4.8 km/h aus 106

9.7 km/h aus WSW

12.2 C

13.3 C

13.2 C

13.3 C

0 W/m

0.00 mm

22:05

13.2 C

1006.0 hpa

94 %

6.4 km/h aus 107

11.3 km/h aus WSW

12.2 C

13.1 C

13.0 C

13.3 C

0 W/m

0.00 mm

22:10

13.2 C

1006.0 hpa

94 %

6.4 km/h aus 109

16.1 km/h aus W

12.2 C

13.1 C

13.0 C

13.3 C

0 W/m

0.25 mm

22:15

13.1 C

1006.4 hpa

94 %

6.4 km/h aus 107

14.5 km/h aus W

12.2 C

13.1 C

12.9 C

13.2 C

0 W/m

0.00 mm

22:20

13.1 C

1006.4 hpa

94 %

4.8 km/h aus 113

9.7 km/h aus WSW

12.2 C

13.2 C

13.1 C

13.2 C

0 W/m

0.25 mm

22:25

13.1 C

1006.4 hpa

94 %

6.4 km/h aus 112

14.5 km/h aus WSW

12.2 C

13.1 C

12.9 C

13.2 C

0 W/m

0.00 mm

22:30

13.1 C

1006.2 hpa

94 %

8.0 km/h aus 109

16.1 km/h aus SW

12.1 C

12.7 C

12.6 C

13.2 C

0 W/m

0.25 mm

22:35

13.1 C

1006.2 hpa

94 %

4.8 km/h aus 104

11.3 km/h aus WSW

12.1 C

13.2 C

13.1 C

13.2 C

0 W/m

0.25 mm

22:40

12.9 C

1006.2 hpa

94 %

6.4 km/h aus 104

11.3 km/h aus SSW

12.0 C

12.9 C

12.8 C

13.1 C

0 W/m

0.00 mm

22:45

12.9 C

1006.3 hpa

94 %

8.0 km/h aus 106

17.7 km/h aus SW

12.0 C

12.6 C

12.5 C

13.1 C

0 W/m

0.00 mm

22:50

12.9 C

1006.3 hpa

94 %

8.0 km/h aus 107

14.5 km/h aus SSW

12.0 C

12.6 C

12.5 C

13.1 C

0 W/m

0.00 mm

22:55

12.9 C

1006.3 hpa

94 %

6.4 km/h aus 106

14.5 km/h aus SSW

12.0 C

12.9 C

12.8 C

13.1 C

0 W/m

0.00 mm

23:00

12.9 C

1006.5 hpa

94 %

3.2 km/h aus 105

8.0 km/h aus SSW

12.0 C

13.1 C

12.9 C

13.1 C

0 W/m

0.00 mm

23:05

13.0 C

1006.5 hpa

94 %

3.2 km/h aus 103

8.0 km/h aus SSW

12.1 C

13.1 C

13.0 C

13.1 C

0 W/m

0.00 mm

23:10

13.0 C

1006.5 hpa

94 %

3.2 km/h aus 106

11.3 km/h aus SSW

12.1 C

13.1 C

13.0 C

13.1 C

0 W/m

0.00 mm

23:15

13.0 C

1006.6 hpa

94 %

4.8 km/h aus 107

14.5 km/h aus W

12.1 C

13.1 C

13.0 C

13.1 C

0 W/m

0.25 mm

23:20

13.0 C

1006.6 hpa

94 %

6.4 km/h aus 108

14.5 km/h aus SW

12.1 C

12.9 C

12.8 C

13.1 C

0 W/m

0.00 mm

23:25

13.1 C

1006.6 hpa

94 %

6.4 km/h aus 102

14.5 km/h aus SW

12.1 C

13.0 C

12.9 C

13.2 C

0 W/m

0.00 mm

23:30

13.1 C

1006.9 hpa

94 %

4.8 km/h aus 104

9.7 km/h aus WNW

12.1 C

13.2 C

13.1 C

13.2 C

0 W/m

0.00 mm

23:35

13.0 C

1006.9 hpa

94 %

3.2 km/h aus 103

11.3 km/h aus SW

12.1 C

13.1 C

13.0 C

13.1 C

0 W/m

0.25 mm

23:40

12.9 C

1006.9 hpa

94 %

3.2 km/h aus 112

8.0 km/h aus SW

12.0 C

13.1 C

12.9 C

13.1 C

0 W/m

0.00 mm

23:45

12.9 C

1006.6 hpa

94 %

3.2 km/h aus 104

8.0 km/h aus SW

11.9 C

13.0 C

12.9 C

13.0 C

0 W/m

0.00 mm

23:50

12.8 C

1006.6 hpa

94 %

4.8 km/h aus 102

8.0 km/h aus SW

11.9 C

12.9 C

12.8 C

12.9 C

0 W/m

0.25 mm

23:55

12.8 C

1006.6 hpa

94 %

4.8 km/h aus 106

9.7 km/h aus SW

11.9 C

12.9 C

12.8 C

12.9 C

0 W/m

0.00 mm